Regional Weather Roundup
Issued by NWS

Home | Current Version | Previous Version | Text Only | Print | Product List | Glossary On
Versions: 1 2 3 4 5 6 7 8 9 10 11 12 13 14 15 16 17 18 19 20 21 22 23 24 25 26 27 28 29 30 31 32 33 34 35 36 37 38 39 40 41 42 43 44 45 46 47 48 49 50
000
ASUS43 KLOT 241308
RWRIL

ILLINOIS REGIONAL WEATHER ROUNDUP
NATIONAL WEATHER SERVICE CHICAGO/ROMEOVILLE IL
800 AM CDT MON APR 24 2017

NOTE: "FAIR" INDICATES FEW OR NO CLOUDS BELOW 12,000 FEET WITH NO
SIGNIFICANT WEATHER AND/OR OBSTRUCTIONS TO VISIBILITY.

* THESE STATIONS ARE NOT UNDER NWS QUALITY CONTROL. THEY ALSO MAY NOT
  REPORT WEATHER SUCH AS PRECIPITATION OR FOG.

ILZ001-002-007-009-015-016-024-241400-
NORTHWEST ILLINOIS

CITY           SKY/WX    TMP DP  RH WIND       PRES   REMARKS
MOLINE         CLOUDY    50  38  63 E6        29.98R
STERLING*      CLOUDY    52  37  56 E6        30.00F
SAVANNA*       MOSUNNY   50  35  56 CALM      30.00S
$$

ILZ003-004-008-010-011-017-018-241400-
NORTH CENTRAL ILLINOIS

CITY           SKY/WX    TMP DP  RH WIND       PRES   REMARKS
ROCKFORD       PTSUNNY   47  38  71 SE5       30.04R
FREEPORT*      SUNNY     46  38  75 SE9       30.02S
ROCHELLE*      SUNNY     49  38  64 SE8       30.03R
DE KALB*       SUNNY     48  40  74 SE6       30.03S
PERU*          SUNNY     47  34  59 E6        30.02S
$$

ILZ005-006-012>014-019>023-241400-
NORTHEAST ILLINOIS

CITY           SKY/WX    TMP DP  RH WIND       PRES   REMARKS
CHICAGO-OHARE  MOSUNNY   47  39  74 NE5       30.02S
CHICAGO-MIDWAY MOSUNNY   50  41  71 NE3       30.03S
AURORA         SUNNY     47  40  76 E6        30.03R
LANSING*       SUNNY     47  45  90 CALM      30.03S
JOLIET*        SUNNY     50  42  72 CALM      30.02F
WAUKEGAN       SUNNY     45  41  86 E5        30.03R
DUPAGE AIRPORT SUNNY     46  41  82 CALM      30.02S
KANKAKEE*      SUNNY     50  39  66 CALM      30.02F
WHEELING       SUNNY     45  41  86 CALM      30.04S
MORRIS*        SUNNY     47  41  78 CALM      30.02S
ROMEOVILLE*    SUNNY     48  43  85 E5        30.03S
NORTHERLY ISL    N/A     48  41  76 NE3         N/A
$$

LMZ740>746-241400-
SOUTHERN LAKE MICHIGAN

STATION/POSITION SKY/WX   TEMP    WIND        PRES    VSBY  WAVE
                          AIR SEA DIR/SP/G                  HT/PER
                          (F)     (DEG/KT/KT) (MB)    (MI)  (FT/S)
SOUTHERN BUOY              42 40   50/  8/  8 1017.5          2/ 5
HARRISON CRIB              45      10/  5/  5   N/A
BURNHAM HARBOR             48      20/  5/  6   N/A
CALUMET HARBOR             47     360/  4/  5 1016.6R
BURNS HARBOR               48        CALM     1017.6R
MICHIGAN CITY              49        CALM       N/A
ST. JOSEPH                 52 50  140/  8/ 10 1017.7          2/ 2
$$

ILZ025>027-034>036-040-047-049-050-058-095>099-241400-
WEST-CENTRAL ILLINOIS

CITY           SKY/WX    TMP DP  RH WIND       PRES   REMARKS
QUINCY         CLOUDY    52  38  58 SE5       29.97S
GALESBURG*     CLOUDY    51  33  50 SE3       29.98S
MACOMB*        CLOUDY    51  33  50 SE6       30.00F
JACKSONVILLE*  SUNNY     53  34  48 E3        29.99R
PITTSFIELD*    MOSUNNY   52  40  65 CALM      29.99F
$$

ILZ028>032-037-038-041>044-048-051>054-059>061-241400-
CENTRAL ILLINOIS

CITY           SKY/WX    TMP DP  RH WIND       PRES   REMARKS
PONTIAC        SUNNY     54  35  50 E3        30.02R
BLOOMINGTON    SUNNY     54  37  52 NE3       30.01R
DECATUR        SUNNY     54  40  59 E6        29.99R
PEORIA         SUNNY     55  35  47 NE3       30.00S
LACON*         SUNNY     49  34  55 CALM      30.00F
LINCOLN*       SUNNY     54  37  53 CALM      29.99S
SPRINGFIELD    SUNNY     55  35  47 CALM      30.00R
TAYLORVILLE    SUNNY     55  35  47 E6        29.98S
$$

ILZ033-039-045-046-055>057-062-063-241400-
EAST-CENTRAL ILLINOIS

CITY           SKY/WX    TMP DP  RH WIND       PRES   REMARKS
CHAMPAIGN      SUNNY     56  32  40 NE12      29.99R
RANTOUL*       SUNNY     57  34  41 E10       30.00R
MATTOON        SUNNY     51  38  60 N5        29.97R
PARIS*         SUNNY     54  37  52 NE7       29.98S
$$

ILZ079-100>102-241400-
SOUTHWEST ILLINOIS

CITY           SKY/WX    TMP DP  RH WIND       PRES   REMARKS
ALTON          MOSUNNY   50  37  62 CALM      29.98R
BELLEVILLE     SUNNY     53  37  54 NE3       29.96R
CAHOKIA*       SUNNY     50  43  77 CALM      29.97R
SPARTA*        SUNNY     50  38  64 NE3       29.97S
$$

ILZ064>066-069>071-074>076-080>082-084>086-088>090-092>094-241400-
SOUTH-CENTRAL ILLINOIS

CITY           SKY/WX    TMP DP  RH WIND       PRES   REMARKS
CARBONDALE     SUNNY     50  41  71 N3        29.95R
CAIRO*         SUNNY     55  41  60 N6        29.93S
EFFINGHAM*     SUNNY     55  38  53 NE3       29.99R
MARION         SUNNY     52  39  62 N6        29.96R
MT. VERNON     SUNNY     54  38  54 NE7       29.96R
CENTRALIA*     SUNNY     53  41  62 CALM      29.96R
SALEM*         SUNNY     56  35  46 NE5       29.97R
METROPOLIS*    SUNNY     55  42  62 N7        29.93R
$$

ILZ067-068-072-073-078-083-087-091-241400-
SOUTHEAST ILLINOIS

CITY           SKY/WX    TMP DP  RH WIND       PRES   REMARKS
LAWRENCEVILLE  SUNNY     55  38  52 NE10      29.94R
FLORA*         SUNNY     53  40  60 N6        29.97R
FAIRFIELD*     SUNNY     53  37  54 N5        29.94R
HARRISBURG*    SUNNY     54  40  58 N5        29.93S
ROBINSON*      SUNNY     52  37  57 NE6       29.96S
CARMI*         SUNNY     54  40  61 N7        29.93R
$$

ABBREVIATIONS USED IN REMARKS
   TC - TEMPERATURE IN CELSIUS
  WCI - WIND CHILL INDEX
   HX - HEAT INDEX
  VSB - VISIBILITY
$$




USA.gov is the U.S. government's official web portal to all federal, state and local government web resources and services.